Temp
3 3 4 3 4 3 4 4 4 4 4 4 5 5 5 5 5 5 5 5 4 5 5 5 5 6 5 6 6 6 6 6 7 7 7 8 8 9 9 8 8 8 8 8 7 7 7
3 3 3 3 3 3 3 4 4 4 4 4 5 5 5 5 5 5 5 4 4 4 4 5 6 6 6 6 6 6 6 6 7 7 7 8 8 9 8 8 8 8 8 8 8 8 7
3 3 3 3 2 3 3 4 4 4 4 4 5 5 5 5 5 4 4 4 4 4 5 5 5 5 5 6 6 6 7 7 7 7 7 8 8 8 8 8 8 8 8 8 8 8 8
2 2 2 2 3 3 3 3 3 4 4 4 4 4 4 4 4 4 4 4 4 4 5 5 6 6 6 6 6 6 7 7 7 7 8 8 8 8 8 8 8 8 8 8 7 8 7
2 2 2 2 2 2 3 3 3 3 3 3 4 4 4 4 4 4 4 4 4 4 5 5 6 6 7 7 7 8 8 7 8 8 8 8 8 8 8 8 8 8 7 7 7 7 7
1 2 2 2 2 2 2 2 2 2 3 3 3 3 4 4 4 4 4 5 5 5 5 6 6 7 7 7 8 8 8 8 7 8 8 8 8 8 8 8 7 7 7 6 6 6 6
1 1 1 2 2 2 2 2 2 2 3 3 3 3 4 4 4 4 5 5 5 5 5 6 7 7 7 7 8 8 8 8 8 8 7 7 7 7 7 7 7 6 6 6 6 6 6
1 1 1 2 2 2 2 2 2 2 2 3 3 3 4 4 5 5 5 5 5 6 6 6 7 7 7 7 8 8 8 8 7 7 7 7 7 6 6 6 6 6 6 6 6 6 6
1 1 1 2 2 2 2 2 2 2 2 3 3 4 4 4 4 5 5 5 6 6 6 6 6 6 7 7 8 8 7 7 7 7 7 6 6 6 6 6 6 6 6 6 5 6 6
1 1 1 2 2 2 2 2 2 2 2 3 3 4 4 4 5 5 5 6 6 7 7 6 6 6 6 6 7 7 7 7 7 6 6 6 5 5 5 5 6 6 5 5 5 5 5
1 1 1 2 2 2 2 2 2 3 3 3 3 4 4 4 5 5 5 6 6 7 3 5 5 5 6 7 6 6 7 7 7 6 6 5 5 5 5 5 5 5 5 5 5 5 5
1 1 1 2 2 2 2 2 3 3 3 3 3 4 4 4 4 5 5 6 6 6 4 5 5 5 6 6 6 6 6 6 6 5 5 5 5 5 5 4 4 4 5 5 5 5 4
1 2 2 2 2 2 2 3 3 3 3 3 4 4 4 4 4 5 5 5 6 6 5 5 4 4 5 5 5 5 5 6 5 5 5 4 4 4 4 4 4 4 5 4 5 4 4
1 1 1 2 2 2 3 3 3 3 3 4 4 4 4 4 5 4 5 5 6 4 4 5 4 4 5 4 4 4 4 5 4 4 4 4 4 4 4 4 3 3 4 3 3 2 2
1 1 1 2 2 2 3 3 3 3 3 4 4 4 4 5 5 5 5 5 4 4 4 4 4 4 4 4 4 4 4 3 3 4 4 3 3 3 4 3 3 3 3 3 2 0 0
1 1 1 1 2 2 3 3 3 3 3 4 4 4 4 5 5 5 4 5 4 4 4 4 4 4 4 4 4 4 3 3 3 3 3 3 3 3 3 2 2 2 2 2 2 1 1
1 1 1 2 2 2 2 3 3 3 3 4 4 4 5 5 5 4 4 5 4 4 4 4 4 4 4 4 4 3 3 2 2 2 3 3 3 3 3 2 2 2 2 1 1 0 -0
1 1 1 2 2 2 2 2 3 3 3 3 4 4 4 4 4 4 5 5 4 4 4 4 4 4 4 4 3 3 3 2 2 2 2 2 3 3 2 2 1 1 1 1 0 -0 -1
1 1 1 1 2 2 2 2 2 2 2 3 3 4 4 4 4 4 4 4 4 4 4 4 4 4 4 4 3 3 2 2 2 2 2 2 2 2 2 1 1 1 0 -0 -1 -2 -2
1 1 1 1 1 2 2 2 2 2 2 2 3 3 3 4 4 4 4 4 4 4 4 4 4 3 3 3 3 2 2 2 1 1 1 1 1 1 1 2 1 0 0 -0 -2 -2 -2
1 1 1 1 1 2 2 2 2 2 2 2 2 3 3 3 3 3 4 4 4 4 3 3 3 3 3 3 3 2 2 2 2 2 1 1 1 1 1 1 1 1 1 0 -1 -1 -3
1 1 1 1 1 2 2 2 2 2 2 2 2 3 3 3 3 3 3 3 3 3 3 3 3 3 3 2 2 2 2 2 2 2 1 1 0 0 0 1 1 1 2 0 0 -0 -1
0 1 1 1 1 1 2 2 2 2 2 2 2 3 3 3 3 3 3 3 3 3 3 2 2 2 2 2 2 2 2 2 2 2 1 0 0 -1 -0 0 0 1 1 1 1 0 -0
-0 0 1 1 1 1 1 2 2 2 2 2 3 2 3 3 2 2 2 2 2 2 2 2 2 2 2 1 1 2 2 2 2 2 1 1 -0 -1 -1 -1 -1 1 0 -0 -0 -0 -1
-0 0 0 1 1 1 1 1 2 2 2 2 2 2 2 2 2 2 2 2 2 2 2 1 1 1 1 1 1 2 2 2 1 1 1 0 -0 -1 -2 -4 -2 0 -0 -1 -1 -2 -1
-0 -0 0 0 1 1 1 1 1 1 1 2 2 2 2 2 2 2 2 2 2 1 1 1 1 1 1 1 0 0 1 1 0 0 0 -0 -1 -2 -3 -4 -3 -0 -1 -2 -2 -2 -3
-1 -0 -0 0 0 0 1 1 1 1 1 1 1 1 1 1 1 1 1 1 1 1 1 1 1 0 0 0 -0 -1 -0 -0 -0 -1 -1 -1 -2 -2 -3 -4 -3 -2 -2 -2 -3 -4 -4
-1 -1 -1 -0 0 0 0 0 0 1 1 1 1 1 1 1 1 1 1 1 1 1 0 0 0 0 -0 -1 -1 -1 -1 -1 -1 -2 -2 -2 -3 -3 -4 -4 -3 -2 -2 -3 -4 -4 -4
-1 -1 -1 -1 -0 -0 0 0 0 0 0 1 1 1 1 1 1 1 1 1 1 0 0 0 -0 -0 -1 -1 -1 -2 -2 -2 -3 -3 -3 -3 -3 -3 -3 -3 -2 -3 -4 -4 -4 -4 -4
Height
3105 3103 3102 3101 3100 3099 3097 3096 3096 3096 3097 3099 3102 3104 3106 3109 3113 3117 3121 3126 3129 3131 3135 3137 3140 3142 3144 3146 3148 3149 3152 3154 3155 3156 3159 3159 3160 3161 3162 3162 3166 3166 3167 3168 3168 3169 3171
3102 3101 3100 3099 3098 3097 3096 3096 3095 3096 3097 3099 3101 3104 3107 3110 3114 3118 3123 3127 3129 3133 3135 3138 3141 3143 3145 3148 3148 3150 3152 3154 3156 3158 3159 3160 3160 3161 3162 3164 3165 3166 3168 3167 3167 3168 3170
3099 3099 3098 3098 3097 3096 3096 3096 3095 3096 3098 3099 3102 3105 3108 3112 3116 3120 3123 3127 3131 3134 3137 3139 3141 3144 3147 3149 3149 3151 3152 3154 3156 3158 3159 3160 3160 3162 3163 3163 3163 3166 3170 3167 3167 3167 3168
3097 3097 3097 3097 3097 3096 3096 3096 3097 3098 3099 3101 3104 3107 3110 3114 3118 3122 3126 3130 3134 3137 3138 3140 3143 3146 3148 3149 3150 3151 3153 3155 3157 3159 3160 3160 3160 3163 3163 3163 3165 3165 3167 3166 3167 3167 3168
3097 3096 3097 3097 3097 3098 3097 3098 3099 3101 3103 3104 3106 3109 3113 3116 3121 3125 3129 3133 3136 3138 3141 3143 3146 3148 3149 3150 3151 3152 3154 3156 3157 3158 3160 3161 3162 3163 3163 3163 3164 3165 3167 3167 3169 3168 3166
3096 3097 3098 3097 3098 3098 3099 3101 3102 3104 3105 3108 3110 3112 3115 3119 3123 3127 3131 3135 3138 3141 3143 3145 3147 3151 3151 3151 3152 3153 3154 3156 3157 3159 3161 3162 3162 3162 3163 3164 3165 3166 3167 3166 3165 3165 3164
3096 3097 3098 3098 3100 3099 3101 3103 3105 3107 3109 3111 3113 3115 3118 3122 3126 3129 3133 3136 3142 3144 3145 3146 3148 3149 3150 3152 3153 3154 3155 3157 3158 3159 3160 3161 3162 3162 3164 3164 3164 3164 3164 3163 3162 3161 3161
3096 3097 3098 3099 3100 3101 3102 3104 3107 3108 3111 3113 3115 3118 3121 3124 3128 3131 3135 3138 3141 3144 3145 3146 3148 3150 3151 3151 3153 3153 3155 3157 3157 3158 3159 3162 3162 3162 3163 3162 3163 3162 3161 3160 3159 3158 3158
3096 3098 3098 3100 3101 3102 3103 3105 3107 3110 3112 3115 3118 3120 3123 3127 3130 3134 3137 3140 3142 3144 3146 3149 3150 3151 3152 3154 3153 3153 3154 3155 3156 3157 3158 3160 3162 3161 3162 3162 3163 3161 3159 3158 3158 3156 3156
3096 3097 3099 3101 3102 3102 3104 3106 3108 3111 3113 3116 3118 3121 3125 3128 3134 3134 3138 3140 3143 3145 3147 3152 3151 3152 3153 3152 3153 3153 3154 3156 3156 3158 3159 3160 3161 3162 3162 3161 3160 3158 3157 3156 3155 3155 3155
3095 3097 3099 3101 3102 3103 3104 3106 3108 3110 3113 3116 3119 3122 3125 3129 3132 3135 3139 3141 3143 3145 3148 3155 3153 3154 3153 3154 3155 3155 3155 3155 3157 3158 3161 3161 3161 3161 3160 3159 3158 3158 3154 3152 3151 3151 3153
3096 3097 3099 3102 3103 3103 3104 3106 3108 3110 3113 3116 3119 3122 3125 3129 3132 3135 3138 3140 3144 3147 3149 3153 3153 3154 3155 3155 3155 3156 3156 3157 3157 3159 3159 3160 3160 3161 3159 3158 3157 3155 3153 3151 3150 3150 3152
3096 3098 3100 3102 3103 3104 3105 3106 3108 3111 3113 3116 3119 3122 3126 3129 3132 3135 3137 3141 3145 3144 3151 3153 3153 3155 3156 3156 3157 3157 3157 3157 3158 3159 3159 3160 3160 3160 3159 3158 3156 3155 3151 3150 3151 3151 3151
3095 3098 3100 3102 3103 3105 3106 3107 3109 3112 3114 3117 3120 3123 3125 3128 3131 3135 3138 3142 3142 3146 3148 3151 3153 3156 3157 3157 3158 3158 3158 3158 3158 3158 3158 3159 3159 3159 3158 3157 3156 3154 3153 3153 3155 3154 3153
3095 3098 3100 3102 3104 3106 3107 3108 3110 3112 3115 3118 3120 3123 3126 3129 3132 3136 3139 3141 3142 3146 3149 3151 3154 3156 3156 3157 3159 3159 3158 3159 3159 3158 3159 3158 3158 3158 3157 3156 3157 3156 3156 3156 3155 3156 3155
3095 3097 3100 3103 3104 3106 3108 3109 3111 3113 3116 3119 3121 3124 3127 3129 3133 3136 3139 3140 3142 3145 3149 3151 3153 3155 3155 3157 3158 3158 3159 3160 3160 3159 3159 3159 3158 3158 3157 3157 3157 3157 3158 3157 3157 3157 3157
3094 3097 3100 3102 3105 3106 3108 3110 3111 3113 3116 3119 3122 3125 3127 3130 3133 3137 3139 3140 3143 3146 3149 3151 3152 3153 3155 3156 3158 3158 3160 3161 3160 3160 3160 3159 3159 3160 3158 3157 3157 3157 3157 3157 3158 3158 3158
3092 3096 3100 3102 3104 3106 3108 3110 3112 3113 3116 3120 3122 3126 3128 3131 3135 3136 3138 3140 3143 3145 3147 3149 3151 3152 3154 3155 3156 3157 3159 3160 3160 3160 3159 3158 3157 3156 3156 3156 3156 3156 3155 3156 3156 3157 3155
3090 3095 3099 3102 3104 3106 3108 3110 3112 3114 3116 3119 3122 3125 3128 3130 3133 3134 3137 3139 3141 3144 3146 3148 3150 3152 3153 3154 3156 3157 3158 3159 3159 3159 3158 3157 3156 3155 3155 3157 3154 3153 3153 3152 3152 3152 3150
3088 3093 3097 3101 3103 3106 3108 3110 3113 3114 3116 3120 3122 3125 3127 3130 3132 3134 3136 3138 3140 3143 3146 3148 3149 3151 3152 3153 3155 3156 3157 3157 3157 3157 3156 3156 3155 3155 3155 3153 3152 3149 3148 3148 3148 3148 3144
3086 3091 3095 3099 3102 3105 3108 3110 3113 3115 3116 3120 3122 3123 3125 3128 3131 3133 3136 3138 3140 3142 3145 3147 3149 3150 3152 3153 3154 3155 3155 3156 3155 3154 3153 3153 3152 3151 3149 3148 3145 3141 3141 3141 3140 3139 3138
3082 3088 3092 3096 3100 3103 3106 3109 3111 3114 3116 3119 3121 3122 3124 3127 3129 3132 3135 3137 3140 3142 3144 3146 3147 3149 3150 3151 3152 3153 3153 3153 3153 3152 3150 3149 3148 3146 3143 3143 3142 3136 3134 3132 3133 3133 3129
3079 3084 3089 3093 3098 3101 3104 3107 3110 3112 3115 3117 3119 3121 3124 3126 3128 3131 3134 3136 3139 3141 3143 3145 3146 3147 3148 3149 3150 3150 3151 3151 3150 3149 3147 3146 3145 3143 3140 3139 3138 3131 3129 3129 3129 3128 3126
3075 3081 3086 3090 3095 3098 3102 3105 3108 3110 3113 3115 3117 3120 3123 3125 3128 3131 3133 3135 3137 3139 3142 3143 3144 3145 3147 3147 3148 3148 3148 3147 3146 3145 3144 3143 3142 3141 3138 3138 3137 3128 3128 3126 3124 3123 3121
3071 3077 3082 3087 3091 3095 3099 3102 3105 3108 3110 3113 3115 3118 3121 3123 3126 3129 3131 3133 3135 3137 3139 3141 3142 3144 3144 3144 3145 3144 3144 3144 3143 3142 3141 3140 3140 3138 3137 3135 3132 3122 3122 3121 3118 3116 3116
3066 3072 3078 3083 3087 3091 3096 3100 3103 3106 3108 3111 3113 3116 3119 3122 3124 3127 3129 3131 3133 3135 3137 3138 3139 3140 3141 3141 3142 3142 3141 3141 3140 3139 3139 3138 3137 3137 3134 3134 3128 3121 3120 3117 3114 3110 3109
3062 3068 3074 3079 3084 3088 3092 3096 3100 3103 3105 3108 3111 3114 3117 3119 3122 3124 3127 3128 3130 3132 3133 3135 3136 3137 3138 3138 3138 3139 3139 3139 3138 3137 3136 3136 3133 3132 3130 3129 3121 3117 3116 3115 3114 3111 3100
3058 3064 3070 3075 3080 3084 3089 3093 3096 3099 3103 3106 3108 3111 3115 3117 3120 3122 3123 3125 3126 3128 3130 3132 3134 3133 3133 3134 3134 3134 3133 3134 3133 3133 3134 3133 3131 3128 3124 3123 3117 3115 3113 3113 3107 3098 3094
3053 3059 3065 3070 3075 3080 3085 3089 3092 3096 3099 3102 3105 3108 3111 3115 3117 3118 3119 3121 3123 3124 3126 3127 3128 3129 3130 3130 3131 3130 3130 3129 3129 3128 3128 3125 3125 3124 3122 3115 3112 3110 3106 3103 3096 3090 3085
Wind_Speed
14 11 12 11 10 9 8 7 6 7 6 9 10 12 13 15 16 17 19 21 21 19 18 17 20 19 18 15 10 16 15 12 11 11 9 8 5 2 4 19 17 14 11 8 7 6 4
10 7 8 7 6 4 3 4 5 5 7 9 11 13 14 17 19 20 22 22 20 18 15 17 19 18 17 11 14 15 14 13 11 7 6 7 5 5 16 15 11 8 5 4 3 3 3
5 5 4 3 1 1 3 5 6 7 10 11 13 16 18 20 22 24 23 22 19 15 15 17 16 17 18 9 12 12 12 11 10 6 6 10 11 9 11 10 8 6 3 3 1 2 5
3 2 0 1 4 6 7 9 10 11 13 16 18 19 21 23 24 22 22 20 16 15 14 14 15 15 14 8 9 10 9 9 7 6 8 10 7 5 5 5 4 4 1 1 2 1 5
5 3 2 3 7 9 11 12 14 17 18 19 20 22 23 23 22 22 20 17 14 13 12 15 13 10 8 8 7 8 9 9 7 9 8 7 6 1 4 4 1 1 0 1 3 5 5
7 7 6 6 8 11 13 14 16 18 19 19 21 22 22 21 21 21 19 16 15 13 14 14 12 8 9 7 7 8 9 10 9 8 6 4 2 1 1 1 2 1 2 4 7 8 8
9 8 8 9 10 11 13 14 15 17 18 19 20 20 20 21 21 20 18 19 17 15 10 11 11 10 10 8 7 7 9 10 9 6 4 3 2 1 2 4 3 4 6 8 8 5 10
10 9 9 10 10 12 12 13 14 15 15 16 17 17 18 18 18 17 18 16 15 15 16 14 13 11 9 8 6 4 5 7 8 6 4 5 2 1 2 4 5 7 6 6 4 8 10
11 11 10 10 10 11 12 13 13 14 14 16 16 16 16 16 16 17 16 16 14 13 17 16 13 10 9 8 7 6 3 3 5 4 3 4 4 3 3 3 5 8 5 10 12 10 5
12 11 10 10 10 11 11 12 12 13 15 16 16 15 16 16 16 16 17 14 14 14 8 7 6 9 4 6 8 8 5 3 5 5 8 4 2 1 5 8 9 9 9 12 13 7 2
13 11 11 10 10 11 11 11 11 12 14 15 15 15 15 16 16 16 15 13 15 8 4 5 9 5 8 3 5 7 5 5 4 4 2 3 1 4 6 7 11 7 14 14 7 4 5
15 13 12 11 10 11 12 11 11 12 13 15 16 16 16 17 16 14 14 12 12 4 4 5 6 5 5 8 8 8 6 4 4 4 3 1 2 3 5 9 10 12 12 3 3 4 2
16 14 13 11 11 10 12 12 12 11 13 14 15 15 17 16 14 12 13 12 7 3 11 8 9 6 6 8 8 8 8 3 2 2 0 1 1 2 7 8 5 9 6 1 1 1 1
17 15 13 12 11 10 12 13 13 12 13 14 15 16 15 14 14 16 14 12 4 12 9 10 11 7 3 6 7 8 8 10 10 6 5 4 1 3 5 8 7 10 9 4 1 2 5
18 16 14 12 11 10 11 13 14 14 13 13 14 14 14 14 18 15 14 4 5 14 14 13 12 8 5 4 3 4 9 10 11 11 4 5 1 2 7 3 4 5 5 5 3 4 3
18 17 15 13 12 11 11 13 14 15 14 13 13 13 13 15 17 14 13 7 13 13 14 13 7 6 5 4 2 3 4 6 7 9 7 6 1 2 2 2 4 2 3 3 4 2 2
20 17 16 14 13 12 11 12 14 15 15 14 13 13 14 16 15 14 11 8 16 14 12 10 8 6 6 4 2 3 4 3 5 6 7 7 3 3 4 3 3 2 1 2 2 0 1
22 18 17 16 14 13 11 11 13 14 15 14 13 11 14 14 14 13 10 12 13 12 10 7 8 6 6 5 3 3 3 1 3 6 6 10 3 4 7 2 1 2 3 2 3 2 5
23 20 18 17 15 14 12 12 13 14 13 13 12 11 14 14 12 14 13 13 12 11 9 8 8 6 6 5 3 3 2 1 3 7 8 11 6 5 1 3 3 4 9 15 9 8 12
24 22 19 17 16 15 14 12 13 13 12 12 11 12 15 15 10 10 13 13 12 10 8 8 7 7 6 5 4 4 2 3 7 9 10 13 7 7 9 12 16 22 21 18 16 11 14
26 23 21 19 17 17 15 14 13 13 11 11 11 10 15 15 12 13 13 12 11 11 8 9 8 6 6 5 3 2 2 4 8 11 10 10 12 17 16 16 18 21 19 18 20 22 17
28 25 22 21 20 18 17 15 13 13 11 10 10 8 13 13 14 14 12 12 11 10 9 8 7 6 5 3 3 2 4 6 5 9 12 17 12 17 22 12 12 26 28 20 3 11 20
30 27 24 21 21 20 18 16 14 12 11 12 11 8 11 12 14 14 13 13 12 10 8 7 6 6 5 4 3 5 6 6 9 12 14 15 10 12 10 12 21 19 4 5 25 19 15
31 29 26 23 21 20 19 17 16 14 12 11 12 12 12 13 14 13 12 11 10 9 8 7 6 6 5 6 7 8 7 6 6 11 11 14 13 11 11 16 3 10 16 26 18 16 21
33 30 27 25 23 21 20 20 18 16 13 12 12 13 13 13 14 13 12 11 11 11 10 8 7 7 7 8 10 7 7 6 8 10 11 10 11 10 6 5 17 27 8 12 22 27 24
34 32 30 27 25 23 21 20 19 18 16 15 14 13 13 12 13 13 12 12 12 11 11 10 9 9 10 11 10 5 3 7 4 8 9 11 13 16 13 5 5 13 22 24 24 26 17
32 31 30 28 26 24 23 21 20 19 17 17 16 15 14 12 11 11 12 11 11 13 12 10 10 12 12 13 13 11 9 11 6 6 8 14 16 20 19 11 17 22 14 14 16 23 33
32 30 28 27 26 25 24 22 20 20 19 18 17 16 14 13 12 11 13 13 14 14 13 12 11 13 13 13 10 11 9 10 9 10 12 19 15 19 11 7 7 10 25 32 39 47 41
35 33 31 29 28 26 25 23 21 20 20 19 18 17 16 15 12 15 17 17 17 18 16 16 16 14 10 10 7 8 10 14 18 18 19 19 20 20 17 23 33 38 34 34 35 37 45
Wind_Direction
279 292 295 299 297 294 280 272 260 240 218 204 191 182 177 174 170 162 161 161 156 156 161 156 161 162 167 167 167 168 160 152 147 152 174 156 156 140 116 119 117 117 110 102 92 87 70
274 288 292 297 297 288 258 240 213 200 176 176 171 165 168 161 157 156 157 154 152 158 157 164 163 164 168 183 185 183 175 177 178 167 166 161 167 158 134 133 136 132 139 136 154 156 146
267 274 288 294 302 150 165 163 160 155 149 153 153 154 154 151 153 154 151 153 152 151 157 157 159 172 179 173 172 185 190 188 194 180 143 141 134 139 137 136 127 135 138 141 302 270 233
214 234 203 153 118 117 132 124 131 134 130 137 144 144 146 148 148 149 150 148 149 153 141 140 154 168 165 161 173 193 182 189 175 165 143 135 129 132 135 129 142 146 158 353 26 48 235
163 150 133 129 114 122 123 125 127 131 133 134 136 140 141 142 147 151 147 146 148 134 132 137 140 138 145 151 168 168 165 163 159 163 150 145 144 126 118 147 153 254 6 61 233 265 273
150 140 145 125 124 121 122 128 131 130 130 134 138 140 140 144 150 150 148 146 139 130 131 130 130 129 139 143 152 160 167 164 161 166 167 186 189 218 149 6 147 262 312 314 323 299 287
148 137 135 130 137 129 129 132 134 135 137 138 140 144 149 152 153 156 154 149 143 133 131 126 124 131 133 126 136 159 173 182 192 193 194 219 268 222 23 35 40 345 320 318 321 311 326
145 137 133 135 142 139 141 142 144 141 142 143 143 146 151 152 155 155 153 148 139 130 115 114 116 120 117 101 97 131 163 184 206 227 236 221 195 73 11 17 4 342 323 328 326 318 319
147 135 129 134 144 145 148 150 152 155 155 156 155 156 153 152 152 155 155 149 144 133 110 99 103 108 106 89 97 106 135 173 182 184 162 166 123 58 25 346 327 336 313 319 313 316 314
152 138 132 132 136 142 149 153 157 165 166 166 163 160 159 159 159 159 155 154 149 136 108 93 83 57 70 101 73 74 82 113 133 123 134 131 121 340 317 325 340 335 317 314 309 300 214
156 146 138 134 132 131 138 146 152 163 168 168 165 165 164 164 159 158 155 156 164 146 74 100 90 104 63 97 97 61 60 71 95 132 170 144 236 297 314 336 338 328 323 319 308 220 191
154 147 140 140 133 129 127 134 144 154 161 164 166 166 165 162 157 162 164 159 161 144 95 110 125 113 91 86 76 61 57 80 88 100 109 215 261 300 323 329 327 333 331 335 82 140 161
153 149 142 137 126 130 130 129 133 147 157 158 159 163 166 167 172 167 165 161 147 103 149 136 138 126 102 89 77 70 68 109 101 197 309 253 272 309 319 335 340 345 1 6 12 16 215
156 151 144 136 126 129 134 136 131 132 146 155 159 163 165 169 170 160 159 156 104 140 143 146 153 148 125 98 78 60 77 76 66 61 87 56 203 347 344 339 347 11 31 57 270 328 313
162 153 147 142 131 131 136 142 141 134 134 146 154 159 163 163 158 157 157 138 119 145 150 155 149 161 136 111 100 65 78 73 54 47 66 25 127 1 350 27 7 360 44 38 17 6 301
170 160 152 149 140 134 138 146 150 147 141 143 147 156 167 166 165 166 163 138 144 152 155 161 166 170 160 151 121 66 77 53 46 38 38 12 143 343 354 350 3 18 45 15 15 20 308
175 170 160 157 151 140 140 151 155 156 154 151 150 156 158 162 168 171 169 151 155 157 166 174 186 167 174 162 168 111 119 105 43 30 22 7 346 343 335 305 287 248 307 54 37 139 179
179 176 170 167 162 154 143 149 157 160 163 164 161 165 167 168 167 173 172 160 162 171 179 176 170 177 174 168 149 139 151 115 19 8 358 356 333 332 320 275 198 251 242 259 345 245 263
184 181 179 176 173 169 158 151 154 159 162 168 175 178 175 173 179 178 170 169 170 171 177 177 176 175 173 166 144 156 155 257 315 337 339 343 320 326 224 233 258 254 282 300 295 279 256
190 190 187 186 181 180 174 162 157 154 161 170 175 175 179 183 182 186 179 170 167 165 170 174 175 160 162 156 153 158 209 290 309 314 317 323 308 289 268 286 292 289 292 290 278 260 260
195 196 194 194 192 188 184 182 174 168 166 174 180 187 181 186 178 177 177 176 176 170 168 161 162 166 170 162 187 224 262 299 305 308 308 309 301 300 294 303 295 294 295 292 280 286 262
198 201 200 199 201 196 193 192 193 192 185 181 184 180 186 181 182 180 184 182 183 180 175 175 176 188 201 215 225 240 297 306 299 306 304 304 298 303 304 305 303 306 305 293 280 303 295
204 203 207 203 205 204 202 200 200 201 200 203 197 181 181 181 182 185 187 184 183 187 183 191 197 207 228 256 267 297 304 304 300 296 297 295 289 298 294 305 317 305 137 295 313 306 306
207 208 209 209 209 208 208 206 204 202 203 204 203 196 194 192 195 195 194 193 199 204 206 204 220 238 255 269 290 305 305 295 291 306 295 288 290 284 272 296 286 288 302 298 294 299 304
207 210 211 212 210 210 208 207 209 209 206 207 202 197 198 204 208 209 211 217 216 218 223 233 244 256 267 284 301 302 288 267 283 287 298 286 279 276 263 233 282 306 323 307 308 301 310
207 210 213 214 212 210 211 212 210 213 209 209 210 207 204 207 213 218 222 222 223 226 236 244 253 264 275 285 292 275 254 279 257 300 298 294 295 273 269 268 261 295 304 305 295 298 305
205 207 210 211 213 213 212 213 214 216 217 215 216 218 219 217 220 221 229 232 235 238 247 255 262 270 275 279 278 271 265 262 268 263 293 304 297 278 271 264 281 306 300 312 308 305 305
207 207 208 210 214 217 219 217 217 218 221 223 223 226 230 232 232 232 235 237 239 242 249 254 260 261 269 267 271 270 247 250 260 271 295 295 291 283 272 249 285 302 308 311 307 303 305
210 210 211 211 213 216 220 222 221 224 226 226 227 230 233 234 236 237 239 241 241 242 244 246 250 259 264 266 253 259 257 268 275 270 290 280 288 279 274 273 287 310 307 301 301 297 301